"日付","酸洗鋼版（3×6）（4×8）2.3ミリ","アルミ地金99.7％","","冷延ステンレス鋼板（薄板）SUS-304　2.0（18Cr-8Ni）","快削黄銅棒","","","ニッケル溶解用",""
"","値","高値","安値","値","25mm 値","10mm 値","5mm 値","高値","高値"
"2019/1/7","82","243","239","350","650","660","710","1350","1300"
"2019/1/8","82","242","238","350","650","660","710","1350","1300"
"2019/1/9","82","240","236","350","650","660","710","1350","1300"
"2019/1/10","82","238","234","350","650","660","710","1400","1350"
"2019/1/11","82","239","235","350","645","655","705","1400","1350"
"2019/1/15","82","234","230","350","645","655","705","1400","1350"
"2019/1/16","82","238","234","350","645","655","705","1400","1350"
"2019/1/17","82","239","235","350","650","660","710","1400","1350"
"2019/1/18","82","242","238","350","650","660","710","1450","1400"
"2019/1/21","82","246","242","350","650","660","710","1450","1400"
"2019/1/22","82","244","240","350","650","660","710","1450","1400"
"2019/1/23","82","247","243","350","650","660","710","1450","1400"
"2019/1/24","82","247","243","350","650","660","710","1450","1400"
"2019/1/25","82","246","242","350","650","660","710","1450","1400"
"2019/1/28","82","246","242","350","675","685","735","1450","1400"
"2019/1/29","82","242","238","350","675","685","735","1450","1400"
"2019/1/30","82","246","242","350","675","685","735","1450","1400"
"2019/1/31","82","247","243","350","675","685","735","1500","1450"
"2019/2/1","82","245","241","350","675","685","735","1500","1450"
"2019/2/4","82","244","240","350","675","685","735","1500","1450"
"2019/2/5","82","247","243","350","675","685","735","1550","1500"
"2019/2/6","82","250","246","350","680","690","740","1600","1550"
"2019/2/7","82","248","244","350","680","690","740","1600","1550"
"2019/2/8","82","246","242","350","680","690","740","1600","1550"
"2019/2/12","82","246","242","350","680","690","740","1550","1500"
"2019/2/13","82","244","240","350","680","690","740","1550","1500"
"2019/2/14","82","244","240","350","680","690","740","1550","1500"
"2019/2/15","82","241","237","350","680","690","740","1550","1500"
"2019/2/18","82","244","240","350","685","695","745","1550","1500"
"2019/2/19","82","243","239","350","685","695","745","1550","1500"
"2019/2/20","82","244","240","350","685","695","745","1550","1500"
"2019/2/21","82","246","242","350","705","715","765","1600","1550"
"2019/2/22","82","249","245","350","705","715","765","1600","1550"
"2019/2/25","82","250","246","350","705","715","765","1600","1550"
"2019/2/26","82","249","245","350","715","725","775","1600","1550"
"2019/2/27","82","249","245","350","715","725","775","1600","1550"
"2019/2/28","82","251","247","350","715","725","775","1600","1550"
"2019/3/1","82","252","248","350","715","725","775","1600","1550"
"2019/3/4","82","254","250","350","715","725","775","1650","1600"
"2019/3/5","82","249","245","350","715","725","775","1650","1600"
"2019/3/6","82","248","244","350","715","725","775","1650","1600"
"2019/3/7","82","247","243","350","715","725","775","1700","1650"
"2019/3/8","82","247","243","350","715","725","775","1700","1650"
"2019/3/11","82","245","241","350","710","720","770","1650","1600"
"2019/3/12","82","245","241","350","710","720","770","1650","1600"
"2019/3/13","82","247","243","350","710","720","770","1650","1600"
"2019/3/14","82","250","246","350","710","720","770","1650","1600"
"2019/3/15","82","251","247","350","710","720","770","1650","1600"
"2019/3/18","82","250","246","350","710","720","770","1600","1550"
"2019/3/19","82","253","249","350","710","720","770","1600","1550"
"2019/3/20","82","255","251","350","710","720","770","1600","1550"
"2019/3/22","82","249","245","350","710","720","770","1600","1550"
"2019/3/25","82","246","242","350","710","720","770","1600","1550"
"2019/3/26","82","245","241","350","695","705","755","1600","1550"
"2019/3/27","82","249","245","350","695","705","755","1600","1550"
"2019/3/28","82","251","247","350","695","705","755","1600","1550"
"2019/3/29","82","254","250","350","695","705","755","1600","1550"
"2019/4/1","82","256","252","350","715","725","775","1600","1550"
"2019/4/2","82","253","249","350","715","725","775","1600","1550"
"2019/4/3","82","251","247","350","715","725","775","1600","1550"
"2019/4/4","82","253","249","350","725","735","785","1650","1600"
"2019/4/5","82","254","250","350","725","735","785","1650","1600"
"2019/4/8","82","252","248","350","725","735","785","1650","1600"
"2019/4/9","82","249","245","350","725","735","785","1650","1600"
"2019/4/10","82","250","246","350","725","735","785","1650","1600"
"2019/4/11","82","248","244","350","715","725","775","1650","1600"
"2019/4/12","82","250","246","350","715","725","775","1650","1600"
"2019/4/15","82","250","246","350","715","725","775","1650","1600"
"2019/4/16","82","251","247","350","725","735","785","1600","1550"
"2019/4/17","82","250","246","350","725","735","785","1600","1550"
"2019/4/18","82","250","246","350","725","735","785","1600","1550"
"2019/4/19","82","250","246","350","725","735","785","1600","1550"
"2019/4/22","82","250","246","350","725","735","785","1600","1550"
"2019/4/23","82","252","248","350","725","735","785","1600","1550"
"2019/4/24","82","252","248","350","715","725","775","1600","1550"
"2019/4/25","82","253","249","350","715","725","775","1550","1500"
"2019/4/26","82","250","246","350","715","725","775","1550","1500"
"2019/5/7","82","240","236","350","700","710","760","1550","1500"
"2019/5/8","82","240","236","350","700","710","760","1500","1450"
"2019/5/9","82","237","233","350","685","695","745","1500","1450"
"2019/5/10","82","237","233","350","685","695","745","1450","1400"
"2019/5/13","82","236","232","350","685","695","745","1450","1400"
"2019/5/14","82","237","233","350","670","680","730","1450","1400"
"2019/5/15","82","240","236","350","670","680","730","1450","1400"
"2019/5/16","82","241","237","350","670","680","730","1450","1400"
"2019/5/17","82","243","239","350","675","685","735","1450","1400"
"2019/5/20","82","241","237","350","675","685","735","1500","1450"
"2019/5/21","82","237","233","350","675","685","735","1500","1450"
"2019/5/22","82","237","233","350","675","685","735","1500","1450"
"2019/5/23","82","234","230","350","670","680","730","1500","1450"
"2019/5/24","82","237","233","350","670","680","730","1500","1450"
"2019/5/27","82","237","233","350","670","680","730","1500","1450"
"2019/5/28","82","237","233","350","670","680","730","1500","1450"
"2019/5/29","82","236","232","350","670","680","730","1500","1450"
"2019/5/30","82","236","232","350","670","680","730","1500","1450"
"2019/5/31","82","235","231","350","670","680","730","1500","1450"
"2019/6/3","82","235","231","350","645","655","705","1500","1450"
"2019/6/4","82","232","228","350","645","655","705","1500","1450"
"2019/6/5","82","233","229","350","645","655","705","1450","1400"
"2019/6/6","82","231","227","350","645","655","705","1450","1400"
"2019/6/7","82","232","228","350","645","655","705","1450","1400"
"2019/6/10","82","230","226","350","645","655","705","1450","1400"
"2019/6/11","82","232","228","350","650","660","710","1450","1400"
"2019/6/12","82","231","227","350","650","660","710","1450","1400"
"2019/6/13","82","232","228","350","650","660","710","1450","1400"
"2019/6/14","82","231","227","350","650","660","710","1450","1400"
"2019/6/17","82","229","225","350","645","655","705","1450","1400"
"2019/6/18","82","229","225","350","645","655","705","1450","1400"
"2019/6/19","82","232","228","350","645","655","705","1450","1400"
"2019/6/20","82","230","226","350","650","660","710","1450","1400"
"2019/6/21","82","230","226","350","650","660","710","1450","1400"
"2019/6/24","82","229","225","350","650","660","710","1450","1400"
"2019/6/25","82","232","228","350","650","660","710","1450","1400"
"2019/6/26","82","234","230","350","655","665","715","1450","1400"
"2019/6/27","82","234","230","350","655","665","715","1500","1450"
"2019/6/28","82","234","230","350","655","665","715","1500","1450"
"2019/7/1","82","235","231","350","660","670","720","1500","1450"
"2019/7/2","82","235","231","350","660","670","720","1500","1450"
"2019/7/3","82","231","227","350","650","660","710","1500","1450"
"2019/7/4","82","233","229","350","650","660","710","1500","1450"
"2019/7/5","82","235","231","350","650","660","710","1500","1450"
"2019/7/8","82","237","233","350","650","660","710","1500","1450"
"2019/7/9","82","237","233","350","650","660","710","1500","1450"
"2019/7/10","82","240","236","350","650","660","710","1500","1450"
"2019/7/11","82","","","350","645","655","705","",""
"2019/7/12","82","238","234","350","645","655","705","1600","1550"
"2019/7/16","82","239","235","350","645","655","705","1600","1550"
"2019/7/17","82","240","236","350","645","655","705","1650","1600"
"2019/7/18","82","239","235","350","645","655","705","1700","1650"
"2019/7/19","82","240","236","350","645","655","705","1750","1700"
"2019/7/22","82","239","235","350","645","655","705","1750","1700"
"2019/7/23","82","236","232","350","645","655","705","1750","1700"
"2019/7/24","82","236","232","350","645","655","705","1750","1700"
"2019/7/25","82","237","233","350","645","655","705","1750","1700"
"2019/7/26","82","238","234","350","645","655","705","1700","1650"
"2019/7/29","82","236","232","350","645","655","705","1700","1650"
"2019/7/30","82","237","233","350","645","655","705","1700","1650"
"2019/7/31","82","235","231","350","645","655","705","1700","1650"
"2019/8/1","82","237","233","350","650","660","710","1750","1700"
"2019/8/2","81","230","226","350","650","660","710","1700","1650"
"2019/8/5","81","228","224","350","625","635","685","1700","1650"
"2019/8/6","81","226","222","350","625","635","685","1750","1700"
"2019/8/7","81","226","222","350","625","635","685","1750","1700"
"2019/8/8","81","226","222","350","625","635","685","1750","1700"
"2019/8/9","81","227","223","350","625","635","685","1800","1750"
"2019/8/13","81","224","220","350","625","635","685","1800","1750"
"2019/8/14","81","228","224","350","625","635","685","1850","1800"
"2019/8/15","81","226","222","350","625","635","685","1850","1800"
"2019/8/16","81","227","223","350","620","630","680","1850","1800"
"2019/8/19","81","229","225","350","615","625","675","1900","1850"
"2019/8/20","81","229","225","350","615","625","675","1900","1850"
"2019/8/21","81","228","224","350","615","625","675","1900","1850"
"2019/8/22","81","228","224","350","615","625","675","1850","1800"
"2019/8/23","81","227","223","350","615","625","675","1850","1800"
"2019/8/26","81","227","223","350","605","615","665","1850","1800"
"2019/8/27","81","225","221","350","605","615","665","1850","1800"
"2019/8/28","81","224","220","350","605","615","665","1850","1800"
"2019/8/29","81","223","219","350","605","615","665","1850","1800"
"2019/8/30","81","225","221","350","605","615","665","1900","1850"
"2019/9/2","81","225","221","350","605","615","665","1900","1850"
"2019/9/3","81","225","221","350","605","615","665","2100","2050"
"2019/9/4","81","225","221","350","605","615","665","2100","2050"
"2019/9/5","81","228","224","350","620","630","680","2100","2050"
"2019/9/6","81","231","227","350","620","630","680","2100","2050"
"2019/9/9","81","230","226","350","620","630","680","2050","2000"
"2019/9/10","81","233","229","350","625","635","685","2100","2050"
"2019/9/11","81","235","231","350","625","635","685","2100","2050"
"2019/9/12","81","236","232","350","625","635","685","2150","2100"
"2019/9/13","81","233","229","350","635","645","695","2150","2100"
"2019/9/17","81","232","228","350","635","645","695","2050","2000"
"2019/9/18","81","232","228","350","635","645","695","2050","2000"
"2019/9/19","81","232","228","350","635","645","695","2050","2000"
"2019/9/20","81","234","230","350","635","645","695","2050","2000"
"2019/9/24","81","232","228","350","635","645","695","2050","2000"
"2019/9/25","81","229","225","350","625","635","685","2050","2000"
"2019/9/26","81","229","225","350","625","635","685","2050","2000"
"2019/9/27","81","228","224","350","625","635","685","2050","2000"
"2019/9/30","81","229","225","350","625","635","685","2050","2000"
"2019/10/1","81","227","223","350","630","640","690","2050","2000"
"2019/10/2","80","227","223","350","630","640","690","2050","2000"
"2019/10/3","80","223","219","350","630","640","690","2050","2000"
"2019/10/4","80","223","219","350","615","625","675","2050","2000"
"2019/10/7","80","225","221","350","615","625","675","2050","2000"
"2019/10/8","80","229","225","350","615","625","675","2100","2050"
"2019/10/9","80","228","224","350","615","625","675","2050","2000"
"2019/10/10","80","228","224","350","620","630","680","2050","2000"
"2019/10/11","80","230","226","350","620","630","680","2050","2000"
"2019/10/15","80","227","223","350","620","630","680","2050","2000"
"2019/10/16","80","229","225","350","635","645","695","2050","2000"
"2019/10/17","80","230","226","350","635","645","695","2050","2000"
"2019/10/18","80","230","226","350","635","645","695","1950","1900"
"2019/10/21","80","230","226","350","635","645","695","1950","1900"
"2019/10/23","80","227","223","350","635","645","695","1900","1850"
"2019/10/24","80","229","225","350","645","655","705","1950","1900"
"2019/10/25","80","228","224","350","645","655","705","2050","2000"
"2019/10/28","80","230","226","350","645","655","705","2050","2000"
"2019/10/29","80","231","227","350","650","660","710","2000","1950"
"2019/10/30","80","233","229","350","650","660","710","2000","1950"
"2019/10/31","80","234","230","350","650","660","710","2000","1950"
"2019/11/1","80","233","229","350","640","650","700","2000","1950"
"2019/11/5","80","241","237","350","640","650","700","2000","1950"
"2019/11/6","80","242","238","350","655","665","715","1950","1900"
"2019/11/7","80","241","237","350","655","665","715","1950","1900"
"2019/11/8","80","244","240","350","655","665","715","1950","1900"
"2019/11/11","80","243","239","360","655","665","715","1950","1900"
"2019/11/12","80","238","234","360","650","660","710","1900","1850"
"2019/11/13","80","237","233","360","650","660","710","1900","1850"
"2019/11/14","80","236","232","360","650","660","710","1900","1850"
"2019/11/15","80","232","228","360","640","650","700","1850","1800"
"2019/11/18","80","235","231","360","640","650","700","1800","1750"
"2019/11/19","80","232","228","360","640","650","700","1800","1750"
"2019/11/20","80","233","229","360","640","650","700","1750","1700"
"2019/11/21","80","234","230","360","640","650","700","1750","1700"
"2019/11/22","80","235","231","360","640","650","700","1750","1700"
"2019/11/25","80","234","230","360","640","650","700","1750","1700"
"2019/11/26","80","235","231","360","640","650","700","1750","1700"
"2019/11/27","80","237","233","360","640","650","700","1750","1700"
"2019/11/28","80","239","235","360","640","650","700","1750","1700"
"2019/11/29","80","238","234","360","640","650","700","1700","1650"
"2019/12/2","80","239","235","360","645","655","705","1700","1650"
"2019/12/3","80","241","237","360","645","655","705","1650","1600"
"2019/12/4","80","236","232","360","645","655","705","1650","1600"
"2019/12/5","80","236","232","360","635","645","695","1600","1550"
"2019/12/6","80","233","229","360","635","645","695","1600","1550"
"2019/12/9","80","235","231","360","635","645","695","1600","1550"
"2019/12/10","78","234","230","360","645","655","705","1600","1550"
"2019/12/11","78","233","229","360","645","655","705","1600","1550"
"2019/12/12","78","233","229","360","645","655","705","1650","1600"
"2019/12/13","78","236","232","360","650","660","710","1650","1600"
"2019/12/16","78","234","230","360","650","660","710","1700","1650"
"2019/12/17","78","236","232","360","650","660","710","1700","1650"
"2019/12/18","78","234","230","360","660","670","720","1700","1650"
"2019/12/19","78","235","231","360","660","670","720","1700","1650"
"2019/12/20","78","236","232","360","660","670","720","1700","1650"
"2019/12/23","78","235","231","360","660","670","720","1700","1650"
"2019/12/24","78","236","232","360","660","670","720","1750","1700"
"2019/12/25","78","236","232","360","660","670","720","1750","1700"
"2019/12/26","78","236","232","360","660","670","720","1750","1700"
